Date,TemperatureHighF,TemperatureAvgF,TemperatureLowF,DewpointHighF,DewpointAvgF,DewpointLowF,HumidityHigh,HumidityAvg,HumidityLow,PressureMaxIn,PressureMinIn,WindSpeedMaxMPH,WindSpeedAvgMPH,GustSpeedMaxMPH,PrecipitationSumIn
2013-4-18,49,44,37,29,24,20,57,44,32,30.35,30.17,15,7,22,0.01
2013-4-19,56,46,34,34,29,26,75,54,34,30.18,29.82,13,2,20,0.00
2013-4-20,60,46,34,42,35,31,92,67,37,29.94,29.83,15,2,28,0.06
2013-4-21,47,37,29,38,33,28,99,88,62,30.25,29.94,11,4,17,0.12
2013-4-22,34,26,11,28,21,6,95,81,61,30.58,30.26,7,3,13,0.36
2013-4-23,43,25,2,26,13,-2,93,64,34,30.57,30.31,5,1,8,0.02
2013-4-24,48,38,30,35,30,24,91,73,52,30.33,30.01,12,4,19,0.04
2013-4-25,68,53,35,37,26,16,75,40,14,30.00,29.81,13,3,20,0.00
2013-4-26,75,54,33,40,32,27,83,50,19,30.12,29.93,7,2,12,0.00
2013-4-27,79,61,40,38,32,21,74,39,12,30.04,29.72,16,2,17,0.00
2013-4-28,65,55,43,46,38,29,83,54,26,29.87,29.70,13,4,20,0.01
2013-4-29,70,49,37,45,38,30,93,70,25,29.73,29.42,16,3,25,0.29
2013-4-30,49,41,32,32,25,19,91,56,32,30.27,29.72,17,4,24,0.01
2013-5-1,51,38,30,30,23,12,90,61,22,30.68,30.28,9,2,13,0.00
2013-5-2,65,45,28,30,23,19,79,48,20,30.72,30.33,11,2,16,0.00
2013-5-3,68,50,28,37,29,22,88,52,19,30.32,30.08,9,2,16,0.00
2013-5-4,55,49,44,46,43,37,91,79,56,30.23,30.15,8,2,13,0.25
2013-5-5,66,51,32,44,36,30,95,62,28,30.24,30.02,13,2,19,0.01
2013-5-6,74,55,33,42,35,30,91,55,22,30.05,29.83,13,2,23,0.00
2013-5-7,81,60,37,42,37,31,85,49,18,29.85,29.72,12,2,20,0.00
2013-5-8,75,56,46,45,40,35,75,59,25,30.04,29.84,9,1,23,0.00
2013-5-9,77,57,38,47,40,30,90,59,19,30.08,29.98,12,2,18,0.00
2013-5-10,75,57,40,46,38,33,87,55,24,30.33,30.06,16,3,26,0.00
2013-5-11,75,54,32,46,36,28,88,56,24,30.35,30.05,10,2,12,0.00
2013-5-12,86,67,45,50,43,39,83,47,20,30.08,29.80,10,2,17,0.00
2013-5-13,93,74,55,53,43,32,73,38,12,29.85,29.53,13,2,16,0.00
2013-5-14,84,71,55,51,46,36,71,42,23,29.76,29.53,17,3,19,0.00
2013-5-15,81,62,42,50,42,37,82,51,24,29.87,29.68,7,1,14,0.00
2013-5-16,77,61,50,54,48,43,84,64,36,29.75,29.61,10,2,18,0.08
2013-5-17,63,56,51,55,52,50,95,86,71,29.79,29.64,8,2,22,0.27
2013-5-18,67,55,46,55,50,44,95,85,65,29.84,29.76,13,3,17,0.03
2013-5-19,55,53,50,51,50,48,93,90,83,29.91,29.78,18,7,27,0.33
2013-5-20,59,52,46,49,45,37,94,79,46,30.09,29.91,18,7,27,0.40
2013-5-21,66,55,46,43,40,34,88,59,32,30.08,29.88,14,5,20,0.00
2013-5-22,64,54,44,50,45,41,91,74,53,29.93,29.85,23,9,29,0.00
2013-5-23,70,60,50,51,48,44,82,66,48,29.88,29.54,40,22,51,0.00
2013-5-24,75,62,48,51,47,41,93,62,34,29.84,29.57,11,3,35,0.00
2013-5-25,79,62,42,56,47,39,91,62,36,29.84,29.62,16,3,23,0.00
2013-5-26,74,61,50,60,52,41,95,72,49,29.84,29.61,10,3,18,0.71
2013-5-27,69,57,47,54,49,38,96,76,37,29.81,29.63,20,3,36,0.15
2013-5-28,74,57,43,53,46,40,91,72,36,29.71,29.54,7,1,22,0.02
2013-5-29,58,54,51,54,51,48,94,89,81,29.64,29.50,13,3,16,0.59
2013-5-30,51,50,48,49,46,43,93,87,79,29.76,29.51,24,9,30,0.33
2013-5-31,54,50,47,45,43,41,89,77,65,30.16,29.72,24,12,37,0.15
2013-6-1,68,57,46,47,44,39,89,64,37,30.24,30.04,12,4,22,0.00
2013-6-2,77,61,41,56,48,39,92,66,37,30.04,29.50,14,3,18,0.00
2013-6-3,68,57,48,54,45,38,90,66,34,29.93,29.50,25,6,30,0.06
2013-6-4,55,48,39,42,39,36,90,71,55,30.28,29.93,15,4,21,0.00
2013-6-5,68,52,35,46,41,33,95,69,40,30.27,30.03,8,1,13,0.00
2013-6-6,78,60,39,53,46,37,94,64,30,30.03,29.93,10,1,12,0.00
2013-6-7,82,63,45,59,51,43,93,69,29,29.95,29.55,10,2,20,0.02
2013-6-8,75,65,54,56,49,45,91,58,35,29.82,29.61,13,4,26,0.07
2013-6-9,86,66,44,57,50,42,94,60,30,29.85,29.53,11,2,14,0.00
2013-6-10,80,68,56,57,53,48,85,60,39,29.73,29.56,13,3,17,0.00
2013-6-11,78,65,55,63,57,51,90,75,57,29.89,29.55,26,5,34,1.20
2013-6-12,76,63,54,61,56,51,94,80,56,29.97,29.83,13,4,20,0.33
2013-6-13,80,68,58,64,59,53,88,75,53,29.90,29.60,23,4,31,0.00
2013-6-14,70,61,49,54,47,41,84,60,40,29.98,29.72,22,4,35,0.00
2013-6-15,77,61,40,51,44,38,91,59,32,30.03,29.86,9,2,16,0.00
2013-6-16,82,65,45,56,48,39,90,59,25,30.01,29.90,6,1,10,0.00
2013-6-17,81,66,50,60,54,48,93,67,40,30.02,29.88,8,1,13,0.00
2013-6-18,82,68,52,59,50,36,90,55,22,29.89,29.59,23,5,35,0.00
2013-6-19,92,75,57,58,49,31,76,43,15,29.59,29.23,25,7,32,0.00
2013-6-20,82,66,50,49,45,42,79,50,25,29.84,29.46,18,5,23,0.00
2013-6-21,75,63,55,56,50,45,80,64,46,29.89,29.81,7,2,11,0.00
2013-6-22,62,56,49,56,52,47,94,86,68,29.95,29.77,12,2,16,0.30
2013-6-23,77,62,42,55,48,40,95,66,37,29.93,29.66,10,2,18,0.01
2013-6-24,87,69,50,62,53,46,93,61,30,29.66,29.42,20,2,28,0.00
2013-6-25,84,72,61,58,52,48,79,52,31,29.68,29.41,17,2,27,0.00
2013-6-26,84,70,56,59,55,49,85,61,36,29.93,29.68,7,1,9,0.00
2013-6-27,88,72,54,61,56,51,90,62,33,30.05,29.93,7,1,12,0.00
2013-6-28,89,73,54,62,56,52,93,61,30,30.10,29.97,9,1,13,0.00
2013-6-29,89,73,54,62,57,51,91,61,32,30.05,29.88,12,2,15,0.00
2013-6-30,89,75,60,59,56,54,83,54,30,29.98,29.88,13,2,19,0.00
2013-7-1,90,74,55,61,56,51,91,58,27,30.03,29.95,8,2,18,0.00
2013-7-2,92,74,54,60,53,46,91,56,22,30.01,29.82,8,1,11,0.00
2013-7-3,93,75,52,62,55,49,90,54,25,29.81,29.67,12,2,23,0.00
2013-7-4,89,73,58,65,59,53,85,65,39,29.80,29.57,12,2,17,0.05
2013-7-5,80,69,58,63,60,55,90,72,51,29.74,29.56,13,2,20,0.02
2013-7-6,86,67,56,62,58,54,94,76,40,29.81,29.63,12,2,16,0.29
2013-7-7,89,71,59,62,58,53,90,66,35,29.86,29.66,16,2,30,0.00
2013-7-8,92,73,61,61,55,44,79,56,23,29.84,29.66,13,3,23,0.00
2013-7-9,84,70,54,60,55,51,91,62,34,30.01,29.84,8,1,13,0.00
2013-7-10,93,75,55,60,55,46,87,54,21,30.00,29.74,7,1,13,0.00
2013-7-11,95,78,58,68,55,47,78,48,22,29.76,29.46,11,2,17,0.00
2013-7-12,83,74,66,63,56,51,79,54,36,29.73,29.60,20,4,22,0.00
2013-7-13,96,74,54,58,52,37,87,53,13,30.01,29.69,16,3,24,0.00
2013-7-14,84,72,58,58,54,48,81,53,35,30.05,29.87,19,5,26,0.00
2013-7-15,96,78,62,63,58,50,84,54,23,29.86,29.66,14,2,22,0.00
2013-7-16,76,68,61,59,56,53,83,66,51,30.07,29.69,22,3,23,0.00
2013-7-17,93,75,56,66,59,53,90,62,27,30.05,29.80,7,1,16,0.00
2013-7-18,91,79,66,63,57,52,78,49,27,29.89,29.79,7,2,15,0.00
2013-7-19,95,76,57,58,53,46,87,50,20,29.93,29.70,9,1,18,0.00
2013-7-20,92,74,56,56,50,46,81,49,21,29.80,29.64,6,1,11,0.00
2013-7-21,93,75,54,56,48,37,84,44,17,29.74,29.59,10,1,16,0.00
2013-7-22,97,76,55,57,50,44,82,45,18,29.76,29.58,18,3,27,0.00
2013-7-23,91,74,56,58,50,41,82,48,18,29.93,29.72,10,2,14,0.00
2013-7-24,91,75,55,57,53,49,86,51,25,29.97,29.72,17,3,21,0.00
2013-7-25,83,72,60,58,54,49,80,54,34,30.02,29.72,8,2,14,0.00
2013-7-26,87,70,55,57,54,51,89,59,32,30.07,29.91,11,2,17,0.00
2013-7-27,88,73,58,59,54,47,84,55,28,29.93,29.66,11,2,18,0.00
2013-7-28,85,71,59,57,53,49,78,54,30,29.74,29.62,12,2,19,0.00
2013-7-29,78,65,53,57,55,51,93,71,47,29.94,29.72,8,2,15,0.00
2013-7-30,83,67,55,61,56,51,89,68,38,30.13,29.87,15,2,22,0.08
2013-7-31,89,69,51,59,53,46,95,63,24,30.15,29.93,6,1,12,0.00
2013-8-1,91,76,64,60,54,49,75,51,26,29.95,29.59,13,3,22,0.02
2013-8-2,82,70,58,61,56,53,87,63,38,29.88,29.66,12,2,15,0.00
2013-8-3,86,71,56,63,59,54,91,68,39,29.97,29.73,18,3,25,0.00
2013-8-4,85,72,59,61,58,54,89,63,37,29.91,29.79,14,2,16,0.00
2013-8-5,92,73,56,60,52,41,89,54,21,29.87,29.64,12,2,20,0.02
2013-8-6,84,69,56,54,48,41,78,51,23,29.91,29.70,7,2,20,0.00
2013-8-7,90,71,51,51,47,42,82,48,20,29.93,29.72,10,2,16,0.00
2013-8-8,85,68,52,56,51,48,84,57,30,29.90,29.81,15,1,19,0.00
2013-8-9,78,68,59,59,54,50,78,63,40,30.01,29.90,12,2,21,0.01
2013-8-10,83,67,52,58,51,43,88,60,30,29.98,29.85,10,1,21,0.00
2013-8-11,89,71,52,50,44,29,76,43,14,29.98,29.83,12,2,19,0.00
2013-8-12,87,69,49,53,44,34,79,46,16,29.94,29.86,6,1,8,0.00
2013-8-13,83,71,56,54,46,36,72,44,20,30.02,29.90,19,3,29,0.00
2013-8-14,84,67,51,51,45,36,75,48,19,29.97,29.84,5,1,12,0.00
2013-8-15,91,70,50,49,43,24,79,45,9,29.96,29.84,7,1,11,0.00
2013-8-16,96,74,49,50,38,17,79,38,6,29.90,29.76,15,3,22,0.00
2013-8-17,92,75,54,54,41,30,62,33,11,29.78,29.72,9,2,16,0.00
2013-8-18,88,71,56,55,49,45,75,50,24,29.87,29.75,12,1,20,0.00
2013-8-19,94,74,54,56,45,33,78,44,12,29.86,29.69,6,1,10,0.00
2013-8-20,92,74,57,52,41,24,70,37,9,29.80,29.69,12,1,13,0.00
2013-8-21,87,72,54,48,44,38,74,40,18,29.93,29.74,15,2,19,0.00
2013-8-22,88,74,62,58,54,48,79,51,26,29.94,29.73,16,3,23,0.01
2013-8-23,93,76,57,62,51,39,81,47,16,29.73,29.55,12,1,18,0.03
2013-8-24,88,73,63,58,53,45,77,52,24,29.77,29.64,7,1,11,0.00
2013-8-25,92,72,59,55,49,34,75,50,13,29.87,29.75,6,1,8,0.00
2013-8-26,94,77,63,56,47,34,68,38,13,29.80,29.72,11,1,15,0.00
2013-8-27,92,78,64,57,48,38,62,38,16,29.82,29.73,8,1,13,0.00
2013-8-28,100,78,60,57,51,38,77,43,13,29.80,29.66,10,1,19,0.00
2013-8-29,94,75,58,55,48,32,71,43,11,29.94,29.79,17,2,36,0.00
2013-8-30,98,75,59,54,47,28,69,43,9,29.90,29.74,20,1,39,0.00
2013-8-31,84,71,56,50,42,36,70,38,19,29.96,29.75,18,2,22,0.00
2013-9-1,93,68,46,46,40,22,81,45,8,30.01,29.84,6,1,11,0.00
2013-9-2,92,72,49,53,45,39,79,44,16,29.88,29.70,13,1,18,0.00
2013-9-3,91,75,59,58,52,46,74,49,22,29.85,29.76,5,1,10,0.00
2013-9-4,93,76,60,56,52,46,74,46,20,29.93,29.82,10,1,16,0.00
2013-9-5,96,76,59,57,53,48,79,50,20,29.90,29.69,7,1,14,0.00
2013-9-6,92,76,65,63,54,43,70,49,20,29.87,29.73,9,2,26,0.10
2013-9-7,90,74,60,61,54,47,84,55,23,29.86,29.74,11,1,32,0.34
2013-9-8,81,67,60,63,58,53,85,73,43,29.84,29.66,7,1,16,0.21
2013-9-9,76,64,53,54,47,39,83,57,27,29.92,29.72,7,2,16,0.00
2013-9-10,78,62,50,51,46,39,83,60,25,30.03,29.93,4,0,6,0.00
2013-9-11,83,64,47,50,45,36,85,56,19,30.17,30.04,5,1,10,0.00
2013-9-12,80,65,50,51,47,42,84,55,26,30.19,29.97,23,6,33,0.00
2013-9-13,80,66,56,60,53,48,87,65,41,29.96,29.67,15,3,24,0.27
2013-9-14,69,61,52,59,55,49,89,83,63,30.00,29.70,10,2,17,1.00
2013-9-15,72,64,58,58,54,49,89,70,47,30.09,29.93,21,8,31,0.12
2013-9-16,84,65,48,56,50,44,88,63,27,29.92,29.68,17,1,24,0.00
2013-9-17,87,66,52,59,49,36,84,62,17,29.71,29.52,14,2,21,0.09
2013-9-18,76,60,46,55,47,32,83,65,22,29.88,29.48,13,3,24,0.14
2013-9-19,62,51,43,40,38,35,85,64,38,30.14,29.89,10,2,15,0.00
2013-9-20,75,54,36,44,36,22,87,58,15,30.14,29.78,12,2,17,0.00
2013-9-21,86,61,38,48,32,11,84,46,6,29.78,29.49,15,2,19,0.00
2013-9-22,70,58,47,53,42,36,76,57,32,29.51,29.41,6,1,12,0.00
2013-9-23,70,58,44,47,39,26,82,54,20,29.86,29.51,11,2,18,0.14
2013-9-24,80,57,37,43,34,16,85,51,9,29.95,29.55,13,2,20,0.00
2013-9-25,61,53,45,46,40,36,86,64,39,29.65,29.47,11,2,15,0.35
2013-9-26,49,45,40,42,39,35,88,79,61,30.04,29.64,11,2,19,0.52
2013-9-27,44,39,33,38,34,30,92,84,75,30.04,29.99,4,0,7,0.44
2013-9-28,67,49,32,41,32,27,87,58,23,30.02,29.87,11,2,19,0.01
2013-9-29,71,58,44,46,35,28,71,44,21,29.86,29.58,15,2,18,0.00
2013-9-30,76,53,39,47,38,34,84,61,25,29.83,29.47,13,3,27,0.00
2013-10-1,70,52,37,40,36,30,82,59,27,29.95,29.80,18,3,31,0.00
2013-10-2,59,50,38,41,35,28,81,59,37,30.08,29.87,15,2,20,0.42
2013-10-3,44,40,34,40,36,30,87,84,80,30.27,29.88,14,5,20,0.68
2013-10-4,36,34,32,30,29,27,88,83,70,30.51,30.26,3,0,9,0.26
2013-10-5,48,35,20,30,25,15,83,68,40,30.46,30.31,13,1,13,0.38
2013-10-6,63,46,32,40,32,28,84,63,30,30.31,30.09,5,1,6,0.00
2013-10-7,64,45,28,44,35,24,85,69,42,30.09,29.72,3,0,7,0.00
2013-10-8,63,52,40,40,35,27,79,55,29,29.93,29.68,14,3,18,0.00
2013-10-9,59,49,40,38,36,30,82,62,34,30.03,29.87,15,3,20,0.00
2013-10-10,54,44,33,41,36,29,87,74,57,29.86,29.68,10,2,13,0.00
2013-10-11,50,44,32,41,33,26,84,67,46,30.08,29.72,22,6,30,0.05
2013-10-12,55,39,26,36,27,21,83,65,31,30.21,30.08,16,2,23,0.00
2013-10-13,48,40,31,38,33,26,90,77,64,30.21,30.12,9,1,12,0.04
2013-10-14,41,36,34,37,32,30,87,85,77,30.44,30.12,16,6,21,0.62
2013-10-15,49,39,26,28,24,20,82,58,35,30.40,30.21,5,1,15,0.00
2013-10-16,56,38,20,34,22,10,83,60,18,30.22,30.10,14,3,21,0.01
2013-10-17,45,38,34,32,30,25,84,73,49,30.26,30.16,12,2,17,0.02
2013-10-18,50,41,34,31,27,21,85,59,31,30.29,30.04,15,4,21,0.03
2013-10-19,62,46,29,38,27,22,80,52,23,30.04,29.90,19,3,24,0.01
2013-10-20,46,42,37,38,35,32,85,75,62,30.14,29.99,14,3,20,0.23
2013-10-21,58,49,38,36,34,30,85,58,36,30.12,30.06,12,3,19,0.00
2013-10-22,64,50,36,39,35,31,83,58,34,30.12,30.03,7,1,13,0.00
2013-10-23,60,46,33,39,35,28,82,67,41,30.30,30.10,13,1,16,0.00
2013-10-24,60,43,31,41,34,27,87,73,43,30.32,30.19,6,1,11,0.00
2013-10-25,67,45,28,42,31,25,86,63,22,30.35,30.17,14,2,20,0.00
2013-10-26,70,44,28,38,29,21,84,61,16,30.34,30.04,5,0,7,0.00
2013-10-27,62,45,30,37,28,23,80,57,23,30.09,29.86,9,1,14,0.00
2013-10-28,40,34,31,32,28,25,84,78,71,30.22,30.09,19,8,29,0.06
2013-10-29,35,32,30,28,25,23,81,75,68,30.21,30.03,15,3,24,0.00
2013-10-30,50,34,25,35,27,21,88,76,46,30.02,29.89,6,1,8,0.00
2013-10-31,54,40,26,35,28,20,82,63,41,30.00,29.80,18,3,25,0.01
2013-11-1,52,42,28,32,25,18,76,52,27,30.19,30.01,19,4,24,0.01
2013-11-2,56,36,23,31,25,18,82,67,35,30.19,29.66,7,1,8,0.00
2013-11-3,42,37,30,34,26,16,85,64,41,29.99,29.64,12,2,24,0.06
2013-11-4,40,31,24,27,22,17,83,70,51,30.24,29.99,8,1,13,0.00
2013-11-5,41,29,19,24,17,11,82,63,30,30.30,30.18,13,2,17,0.00
2013-11-6,47,34,21,28,23,14,82,65,34,30.46,30.22,15,2,26,0.00
2013-11-7,53,38,26,29,25,21,82,63,31,30.46,29.77,18,3,23,0.00
2013-11-8,55,44,34,33,24,14,80,49,21,30.08,29.68,20,5,30,0.02
2013-11-9,48,38,26,28,24,18,77,58,31,30.31,30.08,6,1,8,0.00
2013-11-10,51,36,25,32,26,19,84,68,39,30.38,30.19,6,1,9,0.00
2013-11-11,33,31,28,29,26,24,87,84,80,30.71,30.38,7,2,11,0.00
2013-11-12,55,34,20,40,28,16,88,79,55,30.68,30.32,5,0,6,0.01
2013-11-13,58,43,30,36,31,25,84,63,35,30.33,30.10,14,1,24,0.00
2013-11-14,50,36,26,28,23,19,79,61,32,30.18,29.81,6,1,11,0.00
2013-11-15,48,32,20,28,22,15,82,67,38,29.82,29.50,7,1,14,0.00
2013-11-16,48,35,25,29,24,19,84,64,32,29.58,29.33,14,2,20,0.00
2013-11-17,46,32,20,28,17,8,84,57,22,30.14,29.57,16,2,24,0.01
2013-11-18,54,33,19,27,21,13,79,63,31,30.13,29.89,6,1,7,0.00
2013-11-19,59,41,31,32,26,23,77,59,28,29.90,29.65,6,1,11,0.00
2013-11-20,32,21,11,24,15,5,84,77,68,30.62,29.74,20,3,24,0.00
2013-11-21,21,10,-2,9,3,-8,84,71,58,30.85,30.61,4,0,5,0.01
2013-11-22,36,15,-2,13,3,-8,77,61,26,30.97,30.79,7,1,10,0.01
2013-11-23,43,21,9,19,11,3,80,65,37,30.91,30.45,7,0,8,0.00
2013-11-24,54,30,10,23,15,5,81,58,18,30.44,30.21,7,1,11,0.00
2013-11-25,41,30,21,24,20,15,81,66,44,30.52,30.31,8,1,12,0.00
2013-11-26,44,28,20,26,20,15,82,73,46,30.57,30.26,5,0,6,0.00
2013-11-27,52,32,20,27,20,15,82,64,30,30.35,30.19,8,1,13,0.00
2013-11-28,41,26,15,25,18,11,82,74,51,30.35,30.22,5,0,6,0.00
2013-11-29,58,34,20,29,19,15,84,61,18,30.28,30.17,7,1,11,0.01
2013-11-30,52,36,24,28,23,17,78,61,33,30.28,30.18,6,1,7,0.00
2013-12-1,53,40,29,31,25,22,84,58,30,30.18,29.73,8,1,13,0.00
2013-12-2,50,39,23,34,30,18,87,72,39,29.75,29.50,13,3,20,0.02
2013-12-3,22,12,5,18,7,-1,84,77,74,30.38,29.76,4,0,9,0.00
2013-12-4,5,1,-8,-1,-6,-14,84,73,66,30.62,30.37,6,1,9,0.00
2013-12-5,4,-9,-17,-5,-16,-24,77,71,61,30.80,30.61,2,0,3,0.00
2013-12-6,-2,-14,-21,-10,-21,-28,84,70,63,31.00,30.80,3,0,4,0.00
2013-12-7,-8,-14,-24,-16,-21,-31,84,70,66,30.98,30.57,2,0,2,0.00
2013-12-8,10,-2,-18,2,-10,-24,76,68,52,30.57,30.47,5,1,11,0.00
2013-12-9,27,9,-10,16,0,-16,75,67,59,30.55,30.24,13,1,22,0.00
2013-12-10,30,20,13,21,13,5,82,74,61,30.55,30.15,16,2,24,0.00
2013-12-11,20,6,-6,10,0,-12,84,75,62,30.60,30.49,5,0,5,0.00
2013-12-12,30,15,1,15,7,-4,81,72,53,30.56,30.21,4,0,6,0.13
2013-12-13,36,27,10,30,21,4,83,77,57,30.37,30.17,13,1,18,0.16
2013-12-14,39,30,23,26,21,15,79,69,51,30.36,30.19,7,1,11,0.15
2013-12-15,50,42,29,26,21,18,68,46,28,30.19,30.02,12,2,18,0.02
2013-12-16,47,36,26,25,21,16,74,56,32,30.36,30.03,7,1,14,0.00
2013-12-17,59,34,16,27,20,11,83,59,18,30.39,29.93,9,1,19,0.00
2013-12-18,55,40,26,27,23,16,82,54,21,29.92,29.74,8,1,15,0.00
2013-12-19,28,11,-2,24,5,-8,85,77,67,30.34,29.81,17,4,21,0.00
2013-12-20,24,9,-4,12,2,-10,78,72,56,30.30,29.89,4,0,8,0.00
2013-12-21,29,22,15,22,15,9,83,76,60,30.22,29.86,11,1,13,0.00
2013-12-22,22,14,-5,17,9,-11,84,79,73,30.59,30.19,8,1,13,0.00
2013-12-23,48,11,-9,31,5,-15,81,75,43,30.61,30.15,16,1,21,0.00
2013-12-24,50,34,22,31,22,13,84,64,33,30.44,30.08,22,4,31,0.17
2013-12-25,37,26,16,19,13,7,74,58,32,30.52,30.25,9,2,13,0.00
2013-12-26,50,36,22,28,22,13,75,58,40,30.38,30.17,7,1,10,0.00
2013-12-27,53,35,24,30,24,18,84,67,40,30.25,29.93,6,1,8,0.00
2013-12-28,42,19,4,27,12,-1,81,73,52,30.62,29.91,20,3,26,0.00
2013-12-29,39,19,6,24,11,1,80,71,52,30.59,30.19,13,1,19,0.00
2013-12-30,40,33,22,26,22,16,79,65,50,30.36,30.01,14,2,20,0.00
2013-12-31,46,38,25,32,26,18,86,65,42,30.15,29.95,7,1,15,0.08
2014-1-1,32,25,9,28,20,4,87,81,73,30.43,30.11,5,0,6,0.13
2014-1-2,37,19,7,25,12,2,81,75,61,30.43,30.03,6,1,8,0.05